カタログに戻る

FENGYUN 1C DEB

運用中SSO
NORAD 30480·DEBRIS·🇨🇳 China

打ち上げ May 10, 1999 から Taiyuan Satellite Launch Center

Loading…

次のパス (今後24時間)

TLE

最新Source: Space-Track

元期: Sep 14, 2026, 17:26 UTC

1 30480U 99025AGS 26257.72656154  .00000550  00000-0  18254-3 0  9991
2 30480  98.2187 264.0148 0165731  41.2311  17.1506 14.33998436 26235

AllMySatでFENGYUN 1C DEBをリアルタイム追跡

Download on the App Store